Location: La Trinit�
(48.1620°N, 3.4512°W)
Time: 04:04:22
(UTC+00:00)

Cosmos 1503 Rocket - Pass Details

Date: 08 May 2021
Orbit: 752 x 791 km, 74.0° (Epoch: 13 June)

Event Time Altitude Azimuth Distance (km) Brightness Sun altitude
Rises 20:48:32 0° 188° (S) 3,188 6.9 -10.6°
Reaches altitude 10° 20:50:55 10° 184° (S) 2,270 6.1 -10.9°
Maximum altitude 20:55:56 57° 107° (ESE) 892 4.0 -11.5°
Drops below altitude 10° 21:01:01 10° 30° (NNE) 2,301 6.7 -12.1°
Sets 21:03:27 0° 26° (NNE) 3,237 7.5 -12.4°
